Regional Weather Roundup
Issued by NWS

Home | Current Version | Previous Version | Graphics & Text | Print | Product List | Glossary On
Versions: 1 2 3 4 5 6 7 8 9 10 11 12 13 14 15 16 17 18 19 20 21 22 23 24 25 26 27 28 29 30 31 32 33 34 35 36 37 38 39 40 41 42 43 44 45 46 47 48 49 50
000
ASUS43 KDMX 241706
RWRIA

WEATHER ROUNDUP FOR IOWA
NATIONAL WEATHER SERVICE DES MOINES IA
1200 PM CDT MON APR 24 2017

NOTE: "FAIR" INDICATES FEW OR NO CLOUDS BELOW 12,000 FEET WITH NO
SIGNIFICANT WEATHER AND/OR OBSTRUCTIONS TO VISIBILITY.

* - THESE STATIONS ARE NOT NWS STATIONS...THUS NOT UNDER NWS
QUALITY CONTROL.  THEY ALSO DO NOT REPORT WEATHER SUCH
AS PRECIPITATION OR FOG.

IAZ001>003-012>014-020>022-031>034-043>046-241800-
   NORTHWEST IOWA

CITY           SKY/WX    TMP DP  RH WIND       PRES   REMARKS
CARROLL *      MOSUNNY   68  34  28 S25G35    29.70F
CHEROKEE *     CLOUDY    63  35  35 S21G30    29.66F
DENISON *      CLOUDY    64  36  34 S25G32    29.69F
LE MARS *      CLOUDY    64  37  36 S24G33    29.64F
ORANGE CITY *  CLOUDY    61  37  41 S16G22    29.65S
SHELDON *      CLOUDY    61  32  33 S25G33    29.62F
SIOUX CITY     CLOUDY    67  38  34 S24G36    29.64F
SPENCER        CLOUDY    66  33  29 S26G38    29.66F
STORM LAKE *   CLOUDY    64  32  29 S30G37    29.67F
$$

IAZ055>058-069>071-079>083-090>094-241800-
   SOUTHWEST IOWA

CITY           SKY/WX    TMP DP  RH WIND       PRES   REMARKS
ATLANTIC *     PTSUNNY   66  34  30 S23G35    29.70F
AUDUBON *      MOSUNNY   66  30  26 S18G31    29.72F
CLARINDA *     MOSUNNY   68  34  28 S29G39    29.73F
COUNCIL BLFS * CLOUDY    66  37  34 S26G35    29.66F
CRESTON *      MOSUNNY   68  34  28 S23G31    29.76F
HARLAN  *      CLOUDY    66  32  28 S24G36    29.72F
LAMONI         SUNNY     68  31  25 SE20G31   29.78F
RED OAK *      MOSUNNY   68  34  28 S28G36    29.70F
SHENANDOAH *   PTSUNNY   68  34  28 S25G37    29.69F
$$

IAZ047>049-059>061-072>074-084-241800-
   CENTRAL IOWA

CITY           SKY/WX    TMP DP  RH WIND       PRES   REMARKS
AMES           MOSUNNY   69  34  27 S22G35    29.78F
ANKENY *       MOSUNNY   70  32  24 S24G31    29.79F
BOONE *        MOSUNNY   68  27  21 S23G33    29.75F
CHARITON *     MOSUNNY   68  36  30 S17G31    29.80F
DES MOINES     CLOUDY    71  32  23 S26G36    29.78F
GRINNELL*      CLOUDY    69  27  21 S21G31    29.83F
KNOXVILLE *    SUNNY     70  28  21 S23G30    29.79F
MARSHALLTOWN   MOSUNNY   69  33  26 S24G35    29.80F
NEWTON *       MOSUNNY   70  28  21 S25G33    29.80F
PELLA *        SUNNY     71  26  19 S21G29    29.83F
PERRY *          N/A     69  24  18 S30G37    29.75F
$$

IAZ004>006-015-016-023>025-035-036-241800-
   NORTH CENTRAL IOWA

CITY           SKY/WX    TMP DP  RH WIND       PRES   REMARKS
ALGONA *       PTSUNNY   68  32  26 S31G39    29.70F
CLARION *      SUNNY     70  30  23 S29G38    29.75F
ESTHERVILLE    CLOUDY    64  33  31 S31G44    29.67F
FORT DODGE *   MOSUNNY   68  34  28 S21G35    29.74F
MASON CITY     MOSUNNY   69  29  22 S25G36    29.77F
FOREST CITY *    N/A     68  32  26 S28G37    29.74F
WEBSTER CITY * SUNNY     70  32  24 S28       29.73F
IOWA FALLS *     N/A     69  30  22 S28G35    29.80F
$$

IAZ007>011-017>019-026>030-037>042-050>054-066-241800-
   NORTHEAST IOWA

CITY           SKY/WX    TMP DP  RH WIND       PRES   REMARKS
CEDAR RAPIDS   SUNNY     69  32  25 S20G32    29.85F
CHARLES CITY * MOSUNNY   68  27  21 S25G36    29.81F
CLINTON *      MOSUNNY   70  35  27 SE16      29.92F
DECORAH *      MOSUNNY   66  28  24 S18G32    29.83F
DUBUQUE        MOSUNNY   67  32  27 S21G30    29.90F
MONTICELLO *   SUNNY     70  30  23 S24G32    29.88F
OELWEIN *      SUNNY     68  30  24 S23G37    29.85F
WATERLOO       SUNNY     70  28  21 S20G32    29.82F
$$

IAZ064-065-067-068-078-241800-
   EAST CENTRAL IOWA

CITY           SKY/WX    TMP DP  RH WIND       PRES   REMARKS
DAVENPORT      SUNNY     71  28  20 S17G26    29.91F
IOWA CITY      SUNNY     70  33  25 S21G29    29.89F
MT. PLEASANT * SUNNY     71  32  23 S17G23    29.90F
MUSCATINE *    SUNNY     72  32  23 S18G25    29.90F
QUAD CITIES    SUNNY     71  31  22 S14       29.91F
$$

IAZ062-063-075>077-085>089-095>099-241800-
   SOUTHEAST IOWA

CITY           SKY/WX    TMP DP  RH WIND       PRES   REMARKS
BURLINGTON     SUNNY     69  34  27 S12       29.90F
FAIRFIELD *    SUNNY     70  30  23 SE21G29   29.86F
FORT MADISON * SUNNY     73  34  23 S14       29.91F
KEOKUK *       SUNNY     70  32  24 SE12      29.89F
OSKALOOSA *      N/A     70  30  23 S26G35    29.84F
CENTERVILLE *    N/A     70  32  24 SE21G26   29.84F
OTTUMWA        SUNNY     71  30  21 S25G33    29.84F
WASHINGTON *   SUNNY     72  30  21 S21G28    29.88F
$$

ABBREVIATIONS USED IN REMARKS
   TC - TEMPERATURES IN CELSIUS
  WCI - WIND CHILL INDEX
   HX - HEAT INDEX
  VSB - VISIBILITY
$$




USA.gov is the U.S. government's official web portal to all federal, state and local government web resources and services.